Regional Weather Roundup
Issued by NWS

Home | Current Version | Previous Version | Graphics & Text | Print | Product List | Glossary On
Versions: 1 2 3 4 5 6 7 8 9 10 11 12 13 14 15 16 17 18 19 20 21 22 23 24 25 26 27 28 29 30 31 32 33 34 35 36 37 38 39 40 41 42 43 44 45 46 47 48 49 50
000
ASUS45 KBOI 011410
RWRID
WEATHER ROUNDUP FOR IDAHO
NATIONAL WEATHER SERVICE BOISE ID
800 AM MDT MON SEP 01 2014

NOTE: "FAIR" INDICATES FEW OR NO CLOUDS BELOW 12000 FEET
WITH NO SIGNIFICANT WEATHER AND/OR OBSTRUCTIONS TO VISIBILITY

IDZ012-014-011500-
SOUTHWEST IDAHO


CITY           SKY/WX    TMP DP  RH WIND       PRES   REMARKS
BOISE          CLEAR     51  41  68 CALM      30.08R
CALDWELL       CLEAR     52  36  54 W3        30.10R
MOUNTAIN HOME  CLEAR     50  42  74 NW6       30.08R
$$

IDZ016-017-011500-
SOUTHCENTRAL IDAHO


CITY           SKY/WX    TMP DP  RH WIND       PRES   REMARKS
BURLEY         SUNNY     52  43  71 W8        30.07R
JEROME         CLEAR     50  42  74 S5        30.09R
TWIN FALLS     CLEAR     54  41  61 S13       30.09R
$$

IDZ019>023-011500-
SOUTHEAST IDAHO


CITY           SKY/WX    TMP DP  RH WIND       PRES   REMARKS
IDAHO FALLS    SUNNY     47  41  80 SW8       30.08R
POCATELLO      SUNNY     53  42  66 SW14      30.09R
REXBURG        SUNNY     45  40  82 SW7       30.08R
$$

IDZ006-010-011-018-031-032-011500-
CENTRAL IDAHO MOUNTAINS


CITY           SKY/WX    TMP DP  RH WIND       PRES   REMARKS
MCCALL         CLEAR     37  33  85 CALM      30.11R
HAILEY         CLEAR     43  34  70 W9        30.11R
STANLEY          N/A     30  28  92 SE3       30.18R
SALMON         MOSUNNY   46  43  87 CALM      30.09R
CHALLIS        CLEAR     47  36  65 CALM      30.11R
$$

IDZ002-004-006-007-026-011500-
NORTHERN IDAHO


CITY           SKY/WX    TMP DP  RH WIND       PRES   REMARKS
LEWISTON       CLOUDY    57  44  62 CALM      30.05R
LOWELL           N/A     50  47  89 N3        30.11R
COEUR D`ALENE  CLEAR     50  39  66 S7        30.04S
MULLAN PASS    CLOUDY    42  37  82 VRB5      30.09R
$$



USA.gov is the U.S. government's official web portal to all federal, state and local government web resources and services.